Regional Weather Roundup
Issued by NWS

Home | Current Version | Previous Version | Graphics & Text | Print | Product List | Glossary On
Versions: 1 2 3 4 5 6 7 8 9 10 11 12 13 14 15 16 17 18 19 20 21 22 23 24 25 26 27 28 29 30 31 32 33 34 35 36 37 38 39 40 41 42 43 44 45 46 47 48 49 50
000
ASUS43 KMKX 291034
RWRWI

WISCONSIN REGIONAL WEATHER ROUNDUP
NATIONAL WEATHER SERVICE MILWAUKEE/SULLIVAN WI
600 AM CDT FRI MAY 29 2015

NOTE: "FAIR" INDICATES FEW OR NO CLOUDS BELOW 12,000 FEET WITH NO
SIGNIFICANT WEATHER AND/OR OBSTRUCTIONS TO VISIBILITY.

WIZ001-002-006>008-014>016-023>028-291200-
NORTHWEST WISCONSIN

CITY           SKY/WX    TMP DP  RH WIND       PRES   REMARKS
SUPERIOR ARPT  CLOUDY    43  42  95 CALM      29.89F
ASHLAND        CLOUDY    65  55  70 S7        29.89F
HAYWARD        LGT RAIN  62  58  86 S5        29.92S
SIREN          DRIZZLE   65  57  77 S9        29.89S
CUMBERLAND     DRIZZLE   61  55  82 SE9       29.91F
RICE LAKE      CLOUDY    62  58  88 SE8       29.93F
CHETEK         LGT RAIN  61  59  94 CALM      29.92F
LADYSMITH      CLOUDY    62  56  81 SE6       29.95F
EAU CLAIRE     NOT AVBL
MENOMONIE      RAIN      63  60  91 SE3       29.92F
NEW RICHMOND   RAIN      62  61  96 S12G18    29.90S
OSCEOLA        CLOUDY    64  61  90 SE6       29.91F
$$

WIZ003>005-009-010-017-018-291200-
NORTH CENTRAL WISCONSIN

CITY           SKY/WX    TMP DP  RH WIND       PRES   REMARKS
MANITOWISH WTR CLOUDY    62  55  76 S7        29.95F
ARBOR VITAE    CLOUDY    63  55  76 S9        29.96F
WOODRUFF       CLOUDY    63  55  76 S9        29.96F
RHINELANDER    CLOUDY    64  53  67 S6        29.98F
EAGLE RIVER    CLOUDY    63  51  66 S7        29.97S
LAND O LAKES   CLOUDY    64  53  66 S5        29.97S
PHILLIPS       DRIZZLE   61  55  79 S7        29.94F
TOMAHAWK       CLOUDY    60  55  82 CALM      29.98F
MEDFORD        RAIN      61  55  82 S8        29.98S
MERRILL        CLOUDY   N/A N/A N/A SE3       29.99S
$$

WIZ029-030-035-036-043>047-291200-
CENTRAL WISCONSIN

CITY           SKY/WX    TMP DP  RH WIND       PRES   REMARKS
WAUSAU         LGT RAIN  65  56  72 SW6       29.98S
MOSINEE        LGT RAIN  63  55  77 S12       30.00S
MARSHFIELD     RAIN      62  57  83 S9        29.98F
STEVENS POINT  DRIZZLE   64  55  73 SW12G17   30.00S
WAUPACA        CLOUDY    64  58  80 S3        30.01R
WAUTOMA        NOT AVBL
WISC RAPIDS    LGT RAIN  62  58  86 S5        29.99F
CAMP DOUGLAS   NOT AVBL
$$

WIZ011>013-019>022-031-037>040-048>050-291200-
NORTHEAST WISCONSIN

CITY           SKY/WX    TMP DP  RH WIND       PRES   REMARKS
ANTIGO         CLOUDY    59  55  87 S6        30.00F
SHAWANO        CLOUDY    64  55  74 CALM      29.99F
OCONTO         CLOUDY    65  57  74 S8        29.99F
STURGEON BAY   CLOUDY    61  52  72 S14       30.03F
GREEN BAY      CLOUDY    67  56  67 S12       29.99F
MANITOWOC      NOT AVBL
APPLETON       CLOUDY    64  54  68 SE8       29.99F
CLINTONVILLE   CLOUDY    61  55  82 CALM      29.99F
OSHKOSH        CLOUDY    66  56  70 VRB5      30.00S
$$

WIZ032>034-041-042-053>061-291200-
SOUTHWEST WISCONSIN

CITY           SKY/WX    TMP DP  RH WIND       PRES   REMARKS
LA CROSSE      CLOUDY    65  60  84 SE8       29.93F
SPARTA         CLOUDY    61  59  94 CALM      29.96F
VIROQUA        CLOUDY    61  60  97 SE8       29.96F
BOSCOBEL       CLOUDY    63  61  93 CALM      29.97S
PRAIRIE DU CHI CLOUDY    64  61  88 CALM      29.96S
PLATTEVILLE    CLOUDY    63  61  95 E7        29.99F
$$

WIZ056-057-062-063-064-067-068-291200-
SOUTH CENTRAL WISCONSIN

CITY           SKY/WX    TMP DP  RH WIND       PRES   REMARKS
REEDSBURG      DRIZZLE   61  60  96 CALM      29.98F
BARABOO/DELLS  RAIN      61  58  91 SE3       29.99F
LONE ROCK      NOT AVBL
MINERAL POINT  LGT RAIN  61  59  94 E5        29.98F
MADISON        LGT RAIN  63  59  87 N3        29.99F
MIDDLETON      CLOUDY    64  61  91 CALM      30.01F
WATERTOWN      CLOUDY   N/A N/A N/A CALM      30.00F
MONROE         CLOUDY    61  59  94 CALM      29.99F
JANESVILLE     CLOUDY    63  55  77 SE6       29.99F
$$

WIZ051-052-058>065-066-070>072-291200-
SOUTHEAST WISCONSIN

CITY           SKY/WX    TMP DP  RH WIND       PRES   REMARKS
MILWAUKEE      CLOUDY    59  53  80 SE5       30.01F
WAUKESHA       CLOUDY    63  54  72 S7        30.02F
MILWAUKEE/TIMM CLOUDY    63  52  67 SE3       30.02F
RACINE         MOCLDY    59  53  80 S6        30.03F
BURLINGTON     MOCLDY    56  54  94 CALM      30.01F
KENOSHA        CLOUDY    63  57  81 S5        30.02F
FOND DU LAC    CLOUDY    66  57  72 SW8       30.00S
SHEBOYGAN      CLOUDY    60  53  77 S5        30.01F
WEST BEND      CLOUDY    63  54  72 CALM      30.01F
JUNEAU         CLOUDY    64  56  76 S5        30.02S
$$

LSZ147-162-291200-
LAKE SUPERIOR

STATION/POSITION TIME  TEMP    WIND        PRES    WAVE
                       AIR SEA DIR/SP/G            HT/PER
                 (UTC) (F)     (DEG/KT/KT) (MB)    (FT/S)
W MID LAKE BUOY  0850   38 37  140/  2/  4   N/A     1/ 4
DEVILS ISLAND    0900   40      40/  1/  2   N/A
SAXON HARBOR     0900   65     200/  2/  7   N/A
$$

LMZ867-665-643>646-291200-
LAKE MICHIGAN

STATION/POSITION TIME  TEMP    WIND        PRES    WAVE
                       AIR SEA DIR/SP/G            HT/PER
                 (UTC) (F)     (DEG/KT/KT) (MB)    (FT/S)
CHAMBERS ISLAND  0800   62     160/  5/ 11   N/A
N MID LAKE BUOY  0850   45 36  190/  6/  6   N/A     1/ 4
NORTHPORT PIER   0900   58     150/  8/ 11   N/A
SISTER BAY       0818   58     150/ 11/ 15   N/A
ALGOMA LAKESHORE 0908             CALM       N/A
KEWAUNEE LAKESHO 0900   52     170/  3/  7   N/A
SHEBOYGAN LAKESH 0900   56     180/ 10/ 10   N/A
PORT WASHINGTON  0900   52      CALM  /  2   N/A
ATWATER BUOY     0900   54     150/  4/  6   N/A
MILWAUKEE LAKESH 0900   56     130/  8/ 10   N/A
S MID LAKE BUOY  0850   48 38  150/ 12/ 14   N/A     0
KENOSHA   LAKESH 0900   53     160/  7/  8   N/A
$$

TC  - TEMPERATURE IN CELSIUS
VSB - VISIBILITY IN STATUTE MILES
WCI - WIND CHILL INDEX
HX  - HEAT INDEX



USA.gov is the U.S. government's official web portal to all federal, state and local government web resources and services.